Language: 


Des rapports , des résumés tant et plus, au choix de chacun....


Données Historiques de Météogheer
Journalier Rapport pour Janvier 9, 2018 Unitée:  Impériale    Métrique   Les deux
Suivant Jour »
Journalier Hebdomadaire Mensuel Annuel Sur mesure
  Max: Min: Moyenne:
Température: 45.3 °F 32.9 °F 37.8 °F
Point de rosée: 44.6 °F 33.8 °F 38.1 °F
Humidité: 98% 98% 98%
Vent: 10.3mph 0mph 1.9mph
Rafales: 10.7mph - -
Vent- - SSE
Pression: 29.9 in 29.7 in -
Pluie: 0 in    
Historical Graphs
 
 
Données tabulaires pour Janvier 9, 2018
Heure Température Point de rosée Pression Vent Vent Rafales Humidité Pluie Taux (Horaire) Conditions
00:00 35.2 °F 35.6 °F 29.9 in Calm   4.3 mph 98% 0 in
00:01 35.2 °F 35.6 °F 29.9 in Calm   4.3 mph 98% 0 in
00:03 35.2 °F 35.6 °F 29.9 in NE 2.5 mph 4 mph 98% 0 in
00:04 35.1 °F 35.6 °F 29.9 in NE 3.8 mph 3.8 mph 98% 0 in
00:06 35.2 °F 35.6 °F 29.9 in ENE 3.8 mph 4 mph 98% 0 in
00:08 35.2 °F 35.6 °F 29.9 in ENE 3.4 mph 4 mph 98% 0 in
00:09 35.2 °F 35.6 °F 29.9 in NE 4 mph 4 mph 98% 0 in
00:10 35.2 °F 35.6 °F 29.9 in NE 2 mph 4 mph 98% 0 in
00:11 35.2 °F 35.6 °F 29.9 in Calm   4 mph 98% 0 in
00:13 35.2 °F 35.6 °F 29.9 in ENE 3.4 mph 4 mph 98% 0 in
00:14 35.2 °F 35.6 °F 29.9 in ENE 3.1 mph 4.3 mph 98% 0 in
00:16 35.2 °F 35.6 °F 29.9 in Calm   4.3 mph 98% 0 in
00:17 35.2 °F 35.6 °F 29.9 in Calm   4.3 mph 98% 0 in
00:18 35.2 °F 35.6 °F 29.9 in Calm   4.3 mph 98% 0 in
00:21 35.1 °F 35.6 °F 29.9 in ENE 2.5 mph 4.3 mph 98% 0 in
00:22 35.2 °F 35.6 °F 29.9 in ENE 3.6 mph 4.3 mph 98% 0 in
00:26 35.2 °F 35.6 °F 29.9 in Calm   3.8 mph 98% 0 in
00:28 35.2 °F 35.6 °F 29.9 in Calm   3.8 mph 98% 0 in
00:33 35.1 °F 35.6 °F 29.9 in ENE 2.5 mph 3.8 mph 98% 0 in
00:38 35.1 °F 35.6 °F 29.9 in Calm   3.8 mph 98% 0 in
00:40 35.1 °F 35.6 °F 29.9 in NE 3.4 mph 3.8 mph 98% 0 in
00:43 35.1 °F 35.6 °F 29.9 in Calm   3.6 mph 98% 0 in
00:47 35.1 °F 35.6 °F 29.9 in ENE 3.8 mph 4.9 mph 98% 0 in
00:48 35.2 °F 35.6 °F 29.9 in NE 4.3 mph 4.9 mph 98% 0 in
00:53 35.2 °F 35.6 °F 29.9 in NE 3.8 mph 5.4 mph 98% 0 in
00:56 35.2 °F 35.6 °F 29.9 in Calm   5.4 mph 98% 0 in
00:57 35.2 °F 35.6 °F 29.9 in Calm   5.4 mph 98% 0 in
00:59 35.4 °F 35.6 °F 29.9 in Calm   4.9 mph 98% 0 in
01:00 35.4 °F 35.6 °F 29.9 in NE 4.3 mph 4.9 mph 98% 0 in
01:04 35.4 °F 35.6 °F 29.9 in NE 5.6 mph 5.6 mph 98% 0 in
01:05 35.4 °F 35.6 °F 29.9 in NE 4.9 mph 5.6 mph 98% 0 in
01:06 35.4 °F 35.6 °F 29.9 in NE 3.6 mph 5.6 mph 98% 0 in
01:09 35.4 °F 35.6 °F 29.9 in NE 3.6 mph 5.6 mph 98% 0 in
01:12 35.2 °F 35.6 °F 29.9 in ENE 2.9 mph 5.6 mph 98% 0 in
01:13 35.2 °F 35.6 °F 29.9 in NE 3.8 mph 5.6 mph 98% 0 in
01:14 35.2 °F 35.6 °F 29.9 in NE 4.5 mph 4.9 mph 98% 0 in
01:15 35.2 °F 35.6 °F 29.9 in NE 5.4 mph 5.6 mph 98% 0 in
01:16 35.2 °F 35.6 °F 29.9 in NE 4.3 mph 5.6 mph 98% 0 in
01:19 35.2 °F 35.6 °F 29.9 in NE 3.1 mph 5.6 mph 98% 0 in
01:21 35.2 °F 35.6 °F 29.9 in Calm   5.6 mph 98% 0 in
01:22 35.2 °F 35.6 °F 29.9 in Calm   5.6 mph 98% 0 in
01:23 35.2 °F 35.6 °F 29.9 in Calm   5.6 mph 98% 0 in
01:28 35.1 °F 35.6 °F 29.9 in Calm   4.3 mph 98% 0 in
01:29 35.1 °F 35.6 °F 29.9 in Calm   4.3 mph 98% 0 in
01:31 35.1 °F 35.6 °F 29.9 in NE 2.9 mph 4.3 mph 98% 0 in
01:33 35.1 °F 35.6 °F 29.9 in Calm   4.3 mph 98% 0 in
01:35 35.1 °F 35.6 °F 29.9 in Calm   4.3 mph 98% 0 in
01:38 35.1 °F 35.6 °F 29.9 in Calm   4.3 mph 98% 0 in
01:39 34.9 °F 35.6 °F 29.9 in Calm   4 mph 98% 0 in
01:42 34.9 °F 35.6 °F 29.9 in Calm   2.9 mph 98% 0 in
01:47 34.7 °F 35.6 °F 29.9 in NE 3.4 mph 3.4 mph 98% 0 in
01:51 34.7 °F 35.6 °F 29.9 in Calm   3.4 mph 98% 0 in
01:56 34.5 °F 33.8 °F 29.9 in Calm   3.4 mph 98% 0 in
01:57 34.5 °F 33.8 °F 29.9 in Calm   3.4 mph 98% 0 in
01:59 34.5 °F 33.8 °F 29.9 in Calm   2 mph 98% 0 in
02:00 34.5 °F 33.8 °F 29.9 in Calm   2 mph 98% 0 in
02:01 34.5 °F 33.8 °F 29.9 in Calm   0.9 mph 98% 0 in
02:03 34.5 °F 33.8 °F 29.9 in Calm   0.9 mph 98% 0 in
02:06 34.5 °F 33.8 °F 29.9 in NNE 3.1 mph 3.4 mph 98% 0 in
02:07 34.5 °F 33.8 °F 29.9 in NNE 1.1 mph 3.4 mph 98% 0 in
02:08 34.5 °F 33.8 °F 29.9 in NNE 2.2 mph 3.4 mph 98% 0 in
02:09 34.7 °F 35.6 °F 29.9 in North 2.7 mph 3.6 mph 98% 0 in
02:12 34.7 °F 35.6 °F 29.9 in NE 3.6 mph 3.8 mph 98% 0 in
02:13 34.7 °F 35.6 °F 29.9 in North 4.7 mph 5.8 mph 98% 0 in
02:14 34.5 °F 33.8 °F 29.9 in NNE 4.9 mph 5.8 mph 98% 0 in
02:16 34.5 °F 33.8 °F 29.9 in NNE 3.1 mph 5.8 mph 98% 0 in
02:17 34.5 °F 33.8 °F 29.9 in NNE 3.1 mph 5.8 mph 98% 0 in
02:18 34.5 °F 33.8 °F 29.9 in NNW 4.3 mph 5.8 mph 98% 0 in
02:20 34.5 °F 33.8 °F 29.9 in NNE 3.4 mph 5.8 mph 98% 0 in
02:21 34.5 °F 33.8 °F 29.9 in North 4 mph 5.8 mph 98% 0 in
02:22 34.5 °F 33.8 °F 29.9 in North 4 mph 5.8 mph 98% 0 in
02:23 34.5 °F 33.8 °F 29.9 in NNE 2.9 mph 5.4 mph 98% 0 in
02:25 34.5 °F 33.8 °F 29.9 in NNE 2.9 mph 4.7 mph 98% 0 in
02:26 34.5 °F 33.8 °F 29.9 in NNE 3.4 mph 4.7 mph 98% 0 in
02:30 34.5 °F 33.8 °F 29.9 in NNE 4 mph 6 mph 98% 0 in
02:31 34.5 °F 33.8 °F 29.9 in NE 1.1 mph 6 mph 98% 0 in
02:32 34.5 °F 33.8 °F 29.9 in North 2.7 mph 6 mph 98% 0 in
02:33 34.5 °F 33.8 °F 29.9 in NNE 2.5 mph 6 mph 98% 0 in
02:38 34.5 °F 33.8 °F 29.9 in NNE 3.6 mph 6 mph 98% 0 in
02:39 34.5 °F 33.8 °F 29.9 in NNE 4 mph 6.3 mph 98% 0 in
02:43 34.5 °F 33.8 °F 29.9 in NE 2.7 mph 6.3 mph 98% 0 in
02:44 34.5 °F 33.8 °F 29.9 in Calm   6.3 mph 98% 0 in
02:48 34.5 °F 33.8 °F 29.9 in NNE 3.6 mph 6.3 mph 98% 0 in
02:49 34.5 °F 33.8 °F 29.9 in NNE 3.8 mph 4.9 mph 98% 0 in
02:51 34.3 °F 33.8 °F 29.9 in NE 1.6 mph 4.9 mph 98% 0 in
02:54 34.3 °F 33.8 °F 29.9 in NNE 3.6 mph 4.9 mph 98% 0 in
02:55 34.3 °F 33.8 °F 29.9 in NE 1.6 mph 4.9 mph 98% 0 in
02:58 34.3 °F 33.8 °F 29.9 in Calm   4 mph 98% 0 in
03:04 34.2 °F 33.8 °F 29.9 in NNE 4 mph 4.3 mph 98% 0 in
03:08 34 °F 33.8 °F 29.9 in NE 4.3 mph 4.3 mph 98% 0 in
03:09 34 °F 33.8 °F 29.9 in NE 3.6 mph 4.3 mph 98% 0 in
03:11 34 °F 33.8 °F 29.9 in NNE 3.6 mph 5.4 mph 98% 0 in
03:12 34.2 °F 33.8 °F 29.9 in Calm   5.4 mph 98% 0 in
03:13 34.2 °F 33.8 °F 29.9 in Calm   5.4 mph 98% 0 in
03:16 34 °F 33.8 °F 29.9 in Calm   5.4 mph 98% 0 in
03:18 34 °F 33.8 °F 29.9 in Calm   5.4 mph 98% 0 in
03:21 34 °F 33.8 °F 29.9 in Calm   1.3 mph 98% 0 in
03:23 33.8 °F 33.8 °F 29.9 in Calm     98% 0 in
03:24 33.8 °F 33.8 °F 29.9 in NNE 0.9 mph 3.1 mph 98% 0 in
03:26 33.8 °F 33.8 °F 29.9 in NNE 2 mph 3.1 mph 98% 0 in
03:28 33.8 °F 33.8 °F 29.9 in NE 1.3 mph 3.6 mph 98% 0 in
03:29 33.8 °F 33.8 °F 29.9 in Calm   3.6 mph 98% 0 in
03:30 33.8 °F 33.8 °F 29.9 in Calm   3.6 mph 98% 0 in
03:31 33.8 °F 33.8 °F 29.9 in Calm   3.6 mph 98% 0 in
03:33 34 °F 33.8 °F 29.9 in Calm   3.6 mph 98% 0 in
03:34 34 °F 33.8 °F 29.9 in North 2.7 mph 3.6 mph 98% 0 in
03:36 34 °F 33.8 °F 29.9 in Calm   3.6 mph 98% 0 in
03:37 34 °F 33.8 °F 29.9 in NNE 3.6 mph 3.6 mph 98% 0 in
03:38 34 °F 33.8 °F 29.9 in NNE 3.8 mph 4.3 mph 98% 0 in
03:40 34 °F 33.8 °F 29.9 in NNE 4 mph 4.3 mph 98% 0 in
03:41 34 °F 33.8 °F 29.9 in NNE 2.5 mph 4.3 mph 98% 0 in
03:42 34 °F 33.8 °F 29.9 in NNE 3.6 mph 4.3 mph 98% 0 in
03:44 34 °F 33.8 °F 29.9 in NE 3.8 mph 4.3 mph 98% 0 in
03:48 34 °F 33.8 °F 29.9 in Calm   4 mph 98% 0 in
03:50 33.8 °F 33.8 °F 29.9 in Calm   4 mph 98% 0 in
03:54 33.8 °F 33.8 °F 29.9 in Calm   3.8 mph 98% 0 in
03:56 33.8 °F 33.8 °F 29.9 in Calm   3.4 mph 98% 0 in
03:59 33.8 °F 33.8 °F 29.9 in Calm     98% 0 in
04:00 33.8 °F 33.8 °F 29.9 in Calm     98% 0 in
04:02 33.8 °F 33.8 °F 29.9 in NE 1.6 mph 1.6 mph 98% 0 in
04:03 33.8 °F 33.8 °F 29.9 in Calm   2.5 mph 98% 0 in
04:04 33.8 °F 33.8 °F 29.9 in Calm   2.5 mph 98% 0 in
04:06 33.8 °F 33.8 °F 29.9 in Calm   2.5 mph 98% 0 in
04:08 33.8 °F 33.8 °F 29.9 in Calm   2.5 mph 98% 0 in
04:09 33.8 °F 33.8 °F 29.9 in Calm   2.5 mph 98% 0 in
04:13 33.8 °F 33.8 °F 29.9 in Calm     98% 0 in
04:14 33.8 °F 33.8 °F 29.9 in Calm     98% 0 in
04:18 34 °F 33.8 °F 29.9 in Calm     98% 0 in
04:19 34 °F 33.8 °F 29.9 in Calm     98% 0 in
04:20 34 °F 33.8 °F 29.9 in Calm     98% 0 in
04:21 34 °F 33.8 °F 29.9 in Calm     98% 0 in
04:22 34 °F 33.8 °F 29.9 in Calm     98% 0 in
04:23 34 °F 33.8 °F 29.9 in Calm     98% 0 in
04:24 34 °F 33.8 °F 29.9 in Calm     98% 0 in
04:25 34 °F 33.8 °F 29.9 in Calm     98% 0 in
04:26 34 °F 33.8 °F 29.9 in Calm     98% 0 in
04:29 34 °F 33.8 °F 29.9 in Calm   2.2 mph 98% 0 in
04:30 34 °F 33.8 °F 29.9 in Calm   2.2 mph 98% 0 in
04:33 34 °F 33.8 °F 29.9 in Calm   2.2 mph 98% 0 in
04:34 34 °F 33.8 °F 29.9 in Calm   2.2 mph 98% 0 in
04:35 34 °F 33.8 °F 29.9 in Calm   2.2 mph 98% 0 in
04:36 34 °F 33.8 °F 29.9 in Calm   2.2 mph 98% 0 in
04:37 33.8 °F 33.8 °F 29.9 in Calm     98% 0 in
04:38 33.8 °F 33.8 °F 29.9 in Calm     98% 0 in
04:41 33.8 °F 33.8 °F 29.9 in Calm     98% 0 in
04:42 33.8 °F 33.8 °F 29.9 in NNE 2 mph 2.9 mph 98% 0 in
04:44 33.8 °F 33.8 °F 29.9 in Calm   3.1 mph 98% 0 in
04:46 33.8 °F 33.8 °F 29.9 in Calm   3.1 mph 98% 0 in
04:48 33.8 °F 33.8 °F 29.9 in Calm   3.1 mph 98% 0 in
04:49 33.8 °F 33.8 °F 29.9 in Calm   3.1 mph 98% 0 in
04:50 33.8 °F 33.8 °F 29.9 in Calm   3.1 mph 98% 0 in
04:52 33.8 °F 33.8 °F 29.9 in Calm   3.1 mph 98% 0 in
04:55 33.8 °F 33.8 °F 29.9 in Calm   2.7 mph 98% 0 in
04:56 33.8 °F 33.8 °F 29.9 in Calm   2.7 mph 98% 0 in
04:59 33.8 °F 33.8 °F 29.9 in Calm   2.7 mph 98% 0 in
05:00 33.8 °F 33.8 °F 29.9 in Calm   2.7 mph 98% 0 in
05:02 34 °F 33.8 °F 29.9 in Calm   2.2 mph 98% 0 in
05:03 34 °F 33.8 °F 29.9 in Calm   2.2 mph 98% 0 in
05:08 33.8 °F 33.8 °F 29.9 in Calm   2.7 mph 98% 0 in
05:09 33.8 °F 33.8 °F 29.9 in Calm   2.7 mph 98% 0 in
05:11 33.8 °F 33.8 °F 29.8 in Calm   2.7 mph 98% 0 in
05:14 33.8 °F 33.8 °F 29.8 in Calm   2.7 mph 98% 0 in
05:16 33.8 °F 33.8 °F 29.8 in Calm     98% 0 in
05:17 33.8 °F 33.8 °F 29.8 in Calm     98% 0 in
05:20 33.8 °F 33.8 °F 29.8 in Calm     98% 0 in
05:23 33.6 °F 33.8 °F 29.8 in Calm     98% 0 in
05:24 33.6 °F 33.8 °F 29.8 in Calm     98% 0 in
05:25 33.6 °F 33.8 °F 29.8 in Calm     98% 0 in
05:26 33.6 °F 33.8 °F 29.8 in Calm     98% 0 in
05:28 33.6 °F 33.8 °F 29.8 in Calm     98% 0 in
05:29 33.6 °F 33.8 °F 29.8 in Calm     98% 0 in
05:32 33.4 °F 33.8 °F 29.8 in Calm     98% 0 in
05:34 33.4 °F 33.8 °F 29.8 in Calm     98% 0 in
05:36 33.4 °F 33.8 °F 29.8 in Calm     98% 0 in
05:37 33.4 °F 33.8 °F 29.8 in Calm     98% 0 in
05:39 33.4 °F 33.8 °F 29.8 in Calm     98% 0 in
05:40 33.4 °F 33.8 °F 29.8 in Calm   2.5 mph 98% 0 in
05:41 33.4 °F 33.8 °F 29.8 in Calm   2.5 mph 98% 0 in
05:42 33.4 °F 33.8 °F 29.8 in Calm   2.5 mph 98% 0 in
05:43 33.4 °F 33.8 °F 29.8 in Calm   2.5 mph 98% 0 in
05:45 33.4 °F 33.8 °F 29.8 in Calm   2.5 mph 98% 0 in
05:46 33.6 °F 33.8 °F 29.8 in Calm   2.5 mph 98% 0 in
05:47 33.6 °F 33.8 °F 29.8 in Calm   2.5 mph 98% 0 in
05:48 33.6 °F 33.8 °F 29.8 in Calm   2.5 mph 98% 0 in
05:49 33.6 °F 33.8 °F 29.8 in NE 2 mph 2.5 mph 98% 0 in
05:50 33.6 °F 33.8 °F 29.8 in Calm   2.5 mph 98% 0 in
05:51 33.6 °F 33.8 °F 29.8 in Calm   2 mph 98% 0 in
05:53 33.4 °F 33.8 °F 29.8 in Calm   2 mph 98% 0 in
05:55 33.4 °F 33.8 °F 29.8 in Calm   2 mph 98% 0 in
05:56 33.4 °F 33.8 °F 29.8 in Calm   2 mph 98% 0 in
05:59 33.3 °F 33.8 °F 29.8 in Calm   2 mph 98% 0 in
06:00 33.3 °F 33.8 °F 29.8 in Calm   2 mph 98% 0 in
06:01 33.3 °F 33.8 °F 29.8 in Calm   2 mph 98% 0 in
06:03 33.3 °F 33.8 °F 29.8 in Calm   2 mph 98% 0 in
06:05 33.3 °F 33.8 °F 29.8 in Calm     98% 0 in
06:06 33.3 °F 33.8 °F 29.8 in Calm     98% 0 in
06:07 33.3 °F 33.8 °F 29.8 in Calm     98% 0 in
06:10 33.1 °F 33.8 °F 29.8 in Calm     98% 0 in
06:11 33.1 °F 33.8 °F 29.8 in Calm     98% 0 in
06:12 33.1 °F 33.8 °F 29.8 in Calm     98% 0 in
06:14 33.1 °F 33.8 °F 29.8 in Calm     98% 0 in
06:15 33.1 °F 33.8 °F 29.8 in Calm     98% 0 in
06:16 33.1 °F 33.8 °F 29.8 in Calm     98% 0 in
06:17 33.1 °F 33.8 °F 29.8 in Calm     98% 0 in
06:19 33.1 °F 33.8 °F 29.8 in Calm     98% 0 in
06:20 33.1 °F 33.8 °F 29.8 in Calm     98% 0 in
06:21 33.1 °F 33.8 °F 29.8 in Calm     98% 0 in
06:22 33.1 °F 33.8 °F 29.8 in Calm     98% 0 in
06:23 33.1 °F 33.8 °F 29.8 in Calm     98% 0 in
06:24 33.1 °F 33.8 °F 29.8 in NE 2 mph 2 mph 98% 0 in
06:26 33.1 °F 33.8 °F 29.8 in NNE 2.2 mph 2.2 mph 98% 0 in
06:27 33.1 °F 33.8 °F 29.8 in North 2.5 mph 2.5 mph 98% 0 in
06:28 33.1 °F 33.8 °F 29.8 in North 2.9 mph 2.9 mph 98% 0 in
06:29 33.1 °F 33.8 °F 29.8 in Calm   3.6 mph 98% 0 in
06:30 33.1 °F 33.8 °F 29.8 in North 2.2 mph 3.6 mph 98% 0 in
06:31 33.1 °F 33.8 °F 29.8 in Calm   3.6 mph 98% 0 in
06:32 33.1 °F 33.8 °F 29.8 in Calm   3.6 mph 98% 0 in
06:33 33.1 °F 33.8 °F 29.8 in Calm   3.6 mph 98% 0 in
06:35 33.1 °F 33.8 °F 29.8 in Calm   3.6 mph 98% 0 in
06:36 33.1 °F 33.8 °F 29.8 in Calm   3.6 mph 98% 0 in
06:38 33.1 °F 33.8 °F 29.8 in Calm   3.6 mph 98% 0 in
06:39 33.1 °F 33.8 °F 29.8 in NNE 2.2 mph 3.4 mph 98% 0 in
06:40 33.3 °F 33.8 °F 29.8 in Calm   2.5 mph 98% 0 in
06:42 33.3 °F 33.8 °F 29.8 in Calm   2.5 mph 98% 0 in
06:43 33.3 °F 33.8 °F 29.8 in NNE 2.5 mph 3.1 mph 98% 0 in
06:44 33.3 °F 33.8 °F 29.8 in NE 2.5 mph 3.1 mph 98% 0 in
06:45 33.3 °F 33.8 °F 29.8 in NNE 2.9 mph 3.1 mph 98% 0 in
06:46 33.3 °F 33.8 °F 29.8 in Calm   3.1 mph 98% 0 in
06:47 33.3 °F 33.8 °F 29.8 in Calm   3.1 mph 98% 0 in
06:49 33.3 °F 33.8 °F 29.8 in Calm   3.1 mph 98% 0 in
06:50 33.3 °F 33.8 °F 29.8 in Calm   3.1 mph 98% 0 in
06:51 33.1 °F 33.8 °F 29.8 in Calm   3.1 mph 98% 0 in
06:53 33.1 °F 33.8 °F 29.8 in Calm   2.9 mph 98% 0 in
06:54 33.1 °F 33.8 °F 29.8 in Calm   2.9 mph 98% 0 in
06:57 33.1 °F 33.8 °F 29.8 in NNE 1.3 mph 2.2 mph 98% 0 in
06:58 33.1 °F 33.8 °F 29.8 in Calm   2.2 mph 98% 0 in
06:59 33.1 °F 33.8 °F 29.8 in Calm   2.5 mph 98% 0 in
07:00 33.1 °F 33.8 °F 29.8 in NNE 2.9 mph 3.6 mph 98% 0 in
07:01 33.1 °F 33.8 °F 29.8 in Calm   3.6 mph 98% 0 in
07:02 33.1 °F 33.8 °F 29.8 in Calm   3.6 mph 98% 0 in
07:04 32.9 °F 33.8 °F 29.8 in Calm   3.6 mph 98% 0 in
07:06 32.9 °F 33.8 °F 29.8 in Calm   3.6 mph 98% 0 in
07:07 32.9 °F 33.8 °F 29.8 in Calm   3.6 mph 98% 0 in
07:08 32.9 °F 33.8 °F 29.8 in Calm   3.6 mph 98% 0 in
07:10 32.9 °F 33.8 °F 29.8 in NE 2.9 mph 3.6 mph 98% 0 in
07:12 32.9 °F 33.8 °F 29.8 in Calm   3.4 mph 98% 0 in
07:13 32.9 °F 33.8 °F 29.8 in Calm   3.4 mph 98% 0 in
07:14 32.9 °F 33.8 °F 29.8 in Calm   3.4 mph 98% 0 in
07:18 33.1 °F 33.8 °F 29.8 in Calm   3.4 mph 98% 0 in
07:19 33.1 °F 33.8 °F 29.8 in Calm   3.4 mph 98% 0 in
07:20 33.1 °F 33.8 °F 29.8 in Calm   3.1 mph 98% 0 in
07:21 33.1 °F 33.8 °F 29.8 in Calm   3.1 mph 98% 0 in
07:22 33.3 °F 33.8 °F 29.8 in Calm   2.9 mph 98% 0 in
07:27 33.4 °F 33.8 °F 29.8 in ENE 2.7 mph 2.7 mph 98% 0 in
07:29 33.4 °F 33.8 °F 29.8 in Calm   3.4 mph 98% 0 in
07:30 33.6 °F 33.8 °F 29.8 in Calm   3.4 mph 98% 0 in
07:31 33.6 °F 33.8 °F 29.8 in NE 0.9 mph 3.6 mph 98% 0 in
07:32 33.6 °F 33.8 °F 29.8 in Calm   3.6 mph 98% 0 in
07:33 33.6 °F 33.8 °F 29.8 in NE 3.8 mph 3.8 mph 98% 0 in
07:34 33.6 °F 33.8 °F 29.8 in ENE 4 mph 4 mph 98% 0 in
07:35 33.6 °F 33.8 °F 29.8 in NE 3.8 mph 4 mph 98% 0 in
07:38 33.8 °F 33.8 °F 29.8 in NE 3.6 mph 4.3 mph 98% 0 in
07:40 33.8 °F 33.8 °F 29.8 in NE 3.1 mph 4.3 mph 98% 0 in
07:41 33.8 °F 33.8 °F 29.8 in NE 3.6 mph 4.3 mph 98% 0 in
07:42 33.8 °F 33.8 °F 29.8 in ENE 3.6 mph 4.3 mph 98% 0 in
07:43 33.8 °F 33.8 °F 29.8 in ENE 3.6 mph 4.3 mph 98% 0 in
07:44 33.8 °F 33.8 °F 29.8 in NE 4.3 mph 4.3 mph 98% 0 in
07:46 33.8 °F 33.8 °F 29.8 in Calm   4.7 mph 98% 0 in
07:47 33.8 °F 33.8 °F 29.8 in Calm   4.7 mph 98% 0 in
07:48 33.8 °F 33.8 °F 29.8 in Calm   4.7 mph 98% 0 in
07:50 33.8 °F 33.8 °F 29.8 in Calm   4.7 mph 98% 0 in
07:53 33.8 °F 33.8 °F 29.8 in Calm   4.7 mph 98% 0 in
07:54 33.8 °F 33.8 °F 29.8 in Calm     98% 0 in
07:56 33.8 °F 33.8 °F 29.8 in Calm     98% 0 in
07:58 33.8 °F 33.8 °F 29.8 in Calm     98% 0 in
07:59 33.8 °F 33.8 °F 29.8 in NNE 3.4 mph 3.4 mph 98% 0 in
08:00 33.6 °F 33.8 °F 29.8 in NE 4.3 mph 4.3 mph 98% 0 in
08:01 33.6 °F 33.8 °F 29.8 in NE 4.3 mph 4.3 mph 98% 0 in
08:04 33.6 °F 33.8 °F 29.8 in NNE 4 mph 4.3 mph 98% 0 in
08:05 33.6 °F 33.8 °F 29.8 in Calm   4.3 mph 98% 0 in
08:06 33.4 °F 33.8 °F 29.8 in NNE 3.1 mph 4.3 mph 98% 0 in
08:08 33.4 °F 33.8 °F 29.8 in NNE 3.1 mph 4.3 mph 98% 0 in
08:09 33.4 °F 33.8 °F 29.8 in Calm   4.3 mph 98% 0 in
08:10 33.4 °F 33.8 °F 29.8 in Calm   4.3 mph 98% 0 in
08:12 33.4 °F 33.8 °F 29.8 in NNE 2 mph 4 mph 98% 0 in
08:13 33.4 °F 33.8 °F 29.8 in Calm   4 mph 98% 0 in
08:15 33.4 °F 33.8 °F 29.8 in Calm   3.6 mph 98% 0 in
08:16 33.4 °F 33.8 °F 29.8 in Calm   3.4 mph 98% 0 in
08:17 33.4 °F 33.8 °F 29.8 in North 2.7 mph 3.4 mph 98% 0 in
08:18 33.4 °F 33.8 °F 29.8 in NNE 3.1 mph 3.6 mph 98% 0 in
08:19 33.4 °F 33.8 °F 29.8 in NE 3.8 mph 3.8 mph 98% 0 in
08:20 33.4 °F 33.8 °F 29.8 in NNE 3.4 mph 3.8 mph 98% 0 in
08:22 33.4 °F 33.8 °F 29.8 in Calm   3.8 mph 98% 0 in
08:25 33.4 °F 33.8 °F 29.8 in Calm   3.8 mph 98% 0 in
08:26 33.4 °F 33.8 °F 29.8 in Calm   3.8 mph 98% 0 in
08:27 33.4 °F 33.8 °F 29.8 in Calm   3.8 mph 98% 0 in
08:30 33.6 °F 33.8 °F 29.8 in Calm   3.4 mph 98% 0 in
08:31 33.6 °F 33.8 °F 29.8 in Calm   3.1 mph 98% 0 in
08:32 33.6 °F 33.8 °F 29.8 in ENE 2.7 mph 3.1 mph 98% 0 in
08:33 33.6 °F 33.8 °F 29.8 in ENE 2.2 mph 3.1 mph 98% 0 in
08:34 33.6 °F 33.8 °F 29.8 in Calm   2.7 mph 98% 0 in
08:37 33.6 °F 33.8 °F 29.8 in Calm   2.7 mph 98% 0 in
08:39 33.8 °F 33.8 °F 29.8 in Calm   2.7 mph 98% 0 in
08:42 33.8 °F 33.8 °F 29.8 in Calm   2.2 mph 98% 0 in
08:43 33.8 °F 33.8 °F 29.8 in Calm     98% 0 in
08:44 33.8 °F 33.8 °F 29.8 in Calm     98% 0 in
08:45 33.8 °F 33.8 °F 29.8 in Calm     98% 0 in
08:50 33.8 °F 33.8 °F 29.8 in Calm     98% 0 in
08:51 33.8 °F 33.8 °F 29.8 in Calm     98% 0 in
08:54 33.8 °F 33.8 °F 29.8 in ENE 2.7 mph 2.7 mph 98% 0 in
08:55 33.8 °F 33.8 °F 29.8 in Calm   2.7 mph 98% 0 in
08:56 33.8 °F 33.8 °F 29.8 in ENE 2.5 mph 2.7 mph 98% 0 in
08:57 33.8 °F 33.8 °F 29.8 in Calm   2.7 mph 98% 0 in
08:59 33.8 °F 33.8 °F 29.8 in Calm   2.7 mph 98% 0 in
09:00 33.8 °F 33.8 °F 29.8 in ENE 2.2 mph 2.7 mph 98% 0 in
09:01 33.8 °F 33.8 °F 29.8 in Calm   2.7 mph 98% 0 in
09:02 33.8 °F 33.8 °F 29.8 in Calm   2.7 mph 98% 0 in
09:03 33.8 °F 33.8 °F 29.8 in Calm   2.7 mph 98% 0 in
09:04 33.8 °F 33.8 °F 29.8 in Calm   2.7 mph 98% 0 in
09:06 33.8 °F 33.8 °F 29.8 in Calm   2.5 mph 98% 0 in
09:08 33.8 °F 33.8 °F 29.8 in East 2 mph 2.2 mph 98% 0 in
09:10 33.8 °F 33.8 °F 29.8 in Calm   2.2 mph 98% 0 in
09:12 34 °F 33.8 °F 29.8 in Calm   2 mph 98% 0 in
09:14 34 °F 33.8 °F 29.8 in East 1.3 mph 2 mph 98% 0 in
09:15 34 °F 33.8 °F 29.8 in Calm   2 mph 98% 0 in
09:16 34 °F 33.8 °F 29.8 in Calm   2 mph 98% 0 in
09:17 34 °F 33.8 °F 29.8 in East 1.3 mph 2.2 mph 98% 0 in
09:18 34.2 °F 33.8 °F 29.8 in Calm   2.2 mph 98% 0 in
09:23 34.3 °F 33.8 °F 29.8 in Calm   2.2 mph 98% 0 in
09:24 34.3 °F 33.8 °F 29.8 in Calm   2.2 mph 98% 0 in
09:26 34.3 °F 33.8 °F 29.8 in Calm   2.2 mph 98% 0 in
09:27 34.3 °F 33.8 °F 29.8 in Calm   2.2 mph 98% 0 in
09:30 34.3 °F 33.8 °F 29.8 in Calm   2 mph 98% 0 in
09:31 34.3 °F 33.8 °F 29.8 in Calm   2 mph 98% 0 in
09:32 34.3 °F 33.8 °F 29.8 in Calm   2 mph 98% 0 in
09:33 34.3 °F 33.8 °F 29.8 in Calm   2 mph 98% 0 in
09:34 34.3 °F 33.8 °F 29.8 in Calm   2 mph 98% 0 in
09:35 34.3 °F 33.8 °F 29.8 in Calm   2 mph 98% 0 in
09:36 34.3 °F 33.8 °F 29.8 in Calm   2 mph 98% 0 in
09:37 34.3 °F 33.8 °F 29.8 in Calm   2 mph 98% 0 in
09:38 34.3 °F 33.8 °F 29.8 in Calm   2 mph 98% 0 in
09:39 34.5 °F 33.8 °F 29.8 in Calm     98% 0 in
09:40 34.5 °F 33.8 °F 29.8 in Calm     98% 0 in
09:41 34.5 °F 33.8 °F 29.8 in Calm     98% 0 in
09:43 34.5 °F 33.8 °F 29.8 in Calm   1.3 mph 98% 0 in
09:44 34.5 °F 33.8 °F 29.8 in Calm   1.3 mph 98% 0 in
09:45 34.5 °F 33.8 °F 29.8 in Calm   1.3 mph 98% 0 in
09:46 34.5 °F 33.8 °F 29.8 in Calm   1.3 mph 98% 0 in
09:47 34.5 °F 33.8 °F 29.8 in Calm   2.5 mph 98% 0 in
09:48 34.7 °F 35.6 °F 29.8 in Calm   2.5 mph 98% 0 in
09:49 34.7 °F 35.6 °F 29.8 in Calm   2.5 mph 98% 0 in
09:51 34.7 °F 35.6 °F 29.8 in Calm   2.5 mph 98% 0 in
09:52 34.7 °F 35.6 °F 29.8 in Calm   2.5 mph 98% 0 in
09:53 34.7 °F 35.6 °F 29.8 in Calm   2.5 mph 98% 0 in
09:54 34.7 °F 35.6 °F 29.8 in Calm   2.5 mph 98% 0 in
09:56 34.9 °F 35.6 °F 29.8 in Calm   2.5 mph 98% 0 in
09:57 34.9 °F 35.6 °F 29.8 in Calm     98% 0 in
09:58 34.9 °F 35.6 °F 29.8 in Calm     98% 0 in
09:59 34.9 °F 35.6 °F 29.8 in Calm     98% 0 in
10:00 34.9 °F 35.6 °F 29.8 in Calm     98% 0 in
10:03 34.9 °F 35.6 °F 29.8 in Calm     98% 0 in
10:04 35.1 °F 35.6 °F 29.8 in Calm     98% 0 in
10:05 35.1 °F 35.6 °F 29.8 in Calm     98% 0 in
10:07 35.1 °F 35.6 °F 29.8 in Calm     98% 0 in
10:09 35.2 °F 35.6 °F 29.8 in Calm     98% 0 in
10:10 35.2 °F 35.6 °F 29.8 in Calm     98% 0 in
10:11 35.4 °F 35.6 °F 29.8 in Calm     98% 0 in
10:12 35.4 °F 35.6 °F 29.8 in Calm     98% 0 in
10:15 35.4 °F 35.6 °F 29.8 in Calm     98% 0 in
10:17 35.6 °F 35.6 °F 29.8 in Calm     98% 0 in
10:20 35.6 °F 35.6 °F 29.8 in Calm     98% 0 in
10:21 35.6 °F 35.6 °F 29.8 in Calm     98% 0 in
10:23 35.8 °F 35.6 °F 29.8 in Calm     98% 0 in
10:25 35.8 °F 35.6 °F 29.8 in Calm     98% 0 in
10:26 36 °F 35.6 °F 29.8 in Calm     98% 0 in
10:27 36 °F 35.6 °F 29.8 in Calm     98% 0 in
10:28 36 °F 35.6 °F 29.8 in East 1.3 mph 1.3 mph 98% 0 in
10:29 36 °F 35.6 °F 29.8 in Calm   1.3 mph 98% 0 in
10:33 36.3 °F 37.4 °F 29.8 in Calm   1.6 mph 98% 0 in
10:34 36.3 °F 37.4 °F 29.8 in Calm   1.6 mph 98% 0 in
10:36 36.3 °F 37.4 °F 29.8 in NE 1.6 mph 1.6 mph 98% 0 in
10:37 36.5 °F 37.4 °F 29.8 in Calm   1.6 mph 98% 0 in
10:38 36.5 °F 37.4 °F 29.8 in Calm   1.6 mph 98% 0 in
10:39 36.5 °F 37.4 °F 29.8 in Calm   1.6 mph 98% 0 in
10:40 36.7 °F 37.4 °F 29.8 in Calm   1.6 mph 98% 0 in
10:41 36.7 °F 37.4 °F 29.8 in Calm   1.6 mph 98% 0 in
10:42 36.7 °F 37.4 °F 29.8 in Calm   1.6 mph 98% 0 in
10:43 36.7 °F 37.4 °F 29.8 in ESE 1.6 mph 2.2 mph 98% 0 in
10:44 36.7 °F 37.4 °F 29.8 in Calm   2.2 mph 98% 0 in
10:45 36.9 °F 37.4 °F 29.8 in ENE 1.3 mph 2.2 mph 98% 0 in
10:46 36.9 °F 37.4 °F 29.8 in Calm   2.2 mph 98% 0 in
10:48 36.9 °F 37.4 °F 29.8 in East 2.5 mph 2.7 mph 98% 0 in
10:54 37.2 °F 37.4 °F 29.8 in Calm   2.7 mph 98% 0 in
10:56 37.2 °F 37.4 °F 29.8 in Calm   2.5 mph 98% 0 in
10:58 37.4 °F 37.4 °F 29.8 in East 1.6 mph 2.5 mph 98% 0 in
10:59 37.4 °F 37.4 °F 29.8 in East 0.9 mph 1.6 mph 98% 0 in
11:00 37.4 °F 37.4 °F 29.8 in Calm   1.6 mph 98% 0 in
11:01 37.4 °F 37.4 °F 29.8 in Calm   2.2 mph 98% 0 in
11:03 37.4 °F 37.4 °F 29.8 in Calm   2.2 mph 98% 0 in
11:05 37.6 °F 37.4 °F 29.8 in Calm   2.2 mph 98% 0 in
11:06 37.6 °F 37.4 °F 29.8 in Calm   2.2 mph 98% 0 in
11:08 37.6 °F 37.4 °F 29.8 in ESE 1.6 mph 2.2 mph 98% 0 in
11:09 37.8 °F 37.4 °F 29.8 in Calm   2.2 mph 98% 0 in
11:11 37.8 °F 37.4 °F 29.8 in Calm   2.2 mph 98% 0 in
11:13 37.9 °F 37.4 °F 29.8 in Calm   2 mph 98% 0 in
11:15 37.9 °F 37.4 °F 29.8 in Calm   2 mph 98% 0 in
11:17 37.9 °F 37.4 °F 29.8 in Calm   2 mph 98% 0 in
11:19 38.1 °F 37.4 °F 29.8 in Calm     98% 0 in
11:21 38.3 °F 39.2 °F 29.8 in Calm     98% 0 in
11:22 38.3 °F 39.2 °F 29.8 in Calm     98% 0 in
11:23 38.3 °F 39.2 °F 29.8 in Calm     98% 0 in
11:26 38.5 °F 39.2 °F 29.8 in Calm     98% 0 in
11:27 38.5 °F 39.2 °F 29.8 in Calm     98% 0 in
11:28 38.5 °F 39.2 °F 29.8 in Calm     98% 0 in
11:30 38.7 °F 39.2 °F 29.8 in Calm     98% 0 in
11:32 38.7 °F 39.2 °F 29.8 in Calm     98% 0 in
11:33 38.7 °F 39.2 °F 29.8 in Calm     98% 0 in
11:37 38.8 °F 39.2 °F 29.8 in Calm     98% 0 in
11:38 38.8 °F 39.2 °F 29.8 in Calm     98% 0 in
11:39 38.8 °F 39.2 °F 29.8 in Calm     98% 0 in
11:41 39 °F 39.2 °F 29.8 in Calm     98% 0 in
11:42 39 °F 39.2 °F 29.8 in Calm     98% 0 in
11:43 39 °F 39.2 °F 29.8 in Calm     98% 0 in
11:44 39 °F 39.2 °F 29.8 in Calm     98% 0 in
11:45 39 °F 39.2 °F 29.8 in Calm     98% 0 in
11:46 39.2 °F 39.2 °F 29.8 in Calm     98% 0 in
11:47 39.2 °F 39.2 °F 29.8 in Calm     98% 0 in
11:48 39.2 °F 39.2 °F 29.8 in Calm     98% 0 in
11:49 39.2 °F 39.2 °F 29.8 in Calm     98% 0 in
11:50 39.2 °F 39.2 °F 29.8 in Calm     98% 0 in
11:52 39.4 °F 39.2 °F 29.8 in Calm     98% 0 in
11:53 39.4 °F 39.2 °F 29.8 in SSE 2.5 mph 4 mph 98% 0 in
11:54 39.4 °F 39.2 °F 29.8 in Calm   4 mph 98% 0 in
11:55 39.4 °F 39.2 °F 29.8 in Calm   4 mph 98% 0 in
11:56 39.4 °F 39.2 °F 29.8 in Calm   4 mph 98% 0 in
11:58 39.4 °F 39.2 °F 29.8 in SSE 3.6 mph 6 mph 98% 0 in
11:59 39.4 °F 39.2 °F 29.8 in Calm   6 mph 98% 0 in
12:00 39.6 °F 39.2 °F 29.8 in South 5.8 mph 6 mph 98% 0 in
12:04 39.6 °F 39.2 °F 29.8 in SSE 5.8 mph 6.5 mph 98% 0 in
12:05 39.7 °F 39.2 °F 29.8 in SSW 3.6 mph 6.5 mph 98% 0 in
12:06 39.7 °F 39.2 °F 29.8 in South 1.1 mph 6.5 mph 98% 0 in
12:09 39.7 °F 39.2 °F 29.8 in SSE 1.1 mph 6.5 mph 98% 0 in
12:10 39.7 °F 39.2 °F 29.8 in SSE 4.3 mph 6.5 mph 98% 0 in
12:12 39.7 °F 39.2 °F 29.8 in SSE 5.8 mph 7.8 mph 98% 0 in
12:14 39.7 °F 39.2 °F 29.8 in Calm   7.8 mph 98% 0 in
12:15 39.7 °F 39.2 °F 29.8 in SSE 8.1 mph 8.1 mph 98% 0 in
12:16 39.9 °F 39.2 °F 29.8 in South 5.6 mph 8.1 mph 98% 0 in
12:17 39.9 °F 39.2 °F 29.8 in Calm   8.1 mph 98% 0 in
12:18 39.9 °F 39.2 °F 29.8 in Calm   8.1 mph 98% 0 in
12:19 39.9 °F 39.2 °F 29.8 in Calm   8.1 mph 98% 0 in
12:22 39.9 °F 39.2 °F 29.8 in Calm   8.1 mph 98% 0 in
12:23 39.9 °F 39.2 °F 29.8 in South 2.9 mph 8.1 mph 98% 0 in
12:26 39.9 °F 39.2 °F 29.7 in SSE 3.8 mph 8.1 mph 98% 0 in
12:28 39.9 °F 39.2 °F 29.7 in SSE 2 mph 8.1 mph 98% 0 in
12:29 39.9 °F 39.2 °F 29.7 in SSE 3.6 mph 8.1 mph 98% 0 in
12:30 39.9 °F 39.2 °F 29.7 in Calm   8.1 mph 98% 0 in
12:31 39.9 °F 39.2 °F 29.7 in South 5.4 mph 8.1 mph 98% 0 in
12:32 40.1 °F 41 °F 29.7 in SSW 2.9 mph 8.1 mph 98% 0 in
12:33 40.1 °F 41 °F 29.7 in SSE 2.7 mph 8.1 mph 98% 0 in
12:34 40.1 °F 41 °F 29.7 in SSE 5.6 mph 8.1 mph 98% 0 in
12:35 40.1 °F 41 °F 29.7 in SSE 6.7 mph 6.9 mph 98% 0 in
12:36 40.1 °F 41 °F 29.7 in South 1.6 mph 7.4 mph 98% 0 in
12:37 40.1 °F 41 °F 29.7 in South 4.9 mph 7.4 mph 98% 0 in
12:38 40.1 °F 41 °F 29.7 in South 4.9 mph 7.4 mph 98% 0 in
12:41 40.3 °F 41 °F 29.7 in Calm   7.4 mph 98% 0 in
12:44 40.3 °F 41 °F 29.7 in Calm   7.4 mph 98% 0 in
12:46 40.5 °F 41 °F 29.7 in South 4.7 mph 5.8 mph 98% 0 in
12:47 40.5 °F 41 °F 29.7 in SSW 4 mph 5.8 mph 98% 0 in
12:50 40.5 °F 41 °F 29.7 in South 3.1 mph 5.8 mph 98% 0 in
12:51 40.5 °F 41 °F 29.7 in South 4.3 mph 5.8 mph 98% 0 in
12:52 40.5 °F 41 °F 29.7 in South 2.7 mph 6.3 mph 98% 0 in
12:54 40.6 °F 41 °F 29.7 in South 4.7 mph 6.3 mph 98% 0 in
12:55 40.6 °F 41 °F 29.7 in SSW 4 mph 6.3 mph 98% 0 in
12:57 40.6 °F 41 °F 29.7 in SSE 2.9 mph 6.3 mph 98% 0 in
12:58 40.6 °F 41 °F 29.7 in South 4.3 mph 6.3 mph 98% 0 in
12:59 40.6 °F 41 °F 29.7 in South 5.8 mph 6.3 mph 98% 0 in
13:00 40.6 °F 41 °F 29.7 in Calm   6.3 mph 98% 0 in
13:01 40.6 °F 41 °F 29.7 in Calm   6.3 mph 98% 0 in
13:03 40.6 °F 41 °F 29.7 in South 3.8 mph 6.3 mph 98% 0 in
13:04 40.6 °F 41 °F 29.7 in SSE 5.6 mph 7.2 mph 98% 0 in
13:05 40.6 °F 41 °F 29.7 in Calm   7.2 mph 98% 0 in
13:06 40.6 °F 41 °F 29.7 in South 7.6 mph 7.6 mph 98% 0 in
13:07 40.6 °F 41 °F 29.7 in South 3.6 mph 7.6 mph 98% 0 in
13:09 40.6 °F 41 °F 29.7 in South 3.8 mph 7.6 mph 98% 0 in
13:10 40.6 °F 41 °F 29.7 in South 7.6 mph 7.6 mph 98% 0 in
13:11 40.6 °F 41 °F 29.7 in SSW 6.5 mph 7.6 mph 98% 0 in
13:12 40.6 °F 41 °F 29.7 in SSW 5.6 mph 7.6 mph 98% 0 in
13:15 40.6 °F 41 °F 29.7 in SSW 3.6 mph 7.6 mph 98% 0 in
13:16 40.6 °F 41 °F 29.7 in SSW 4 mph 7.6 mph 98% 0 in
13:17 40.6 °F 41 °F 29.7 in SSW 4 mph 7.6 mph 98% 0 in
13:18 40.6 °F 41 °F 29.7 in SSW 4 mph 7.6 mph 98% 0 in
13:19 40.6 °F 41 °F 29.7 in SSW 5.8 mph 7.6 mph 98% 0 in
13:22 40.8 °F 41 °F 29.7 in SSW 3.8 mph 6.5 mph 98% 0 in
13:23 40.8 °F 41 °F 29.7 in SSW 4.9 mph 6.9 mph 98% 0 in
13:24 40.8 °F 41 °F 29.7 in SSE 3.6 mph 6.9 mph 98% 0 in
13:25 40.8 °F 41 °F 29.7 in SSW 2.9 mph 6.9 mph 98% 0 in
13:26 40.8 °F 41 °F 29.7 in South 4.3 mph 7.8 mph 98% 0 in
13:28 40.8 °F 41 °F 29.7 in SSE 3.6 mph 7.8 mph 98% 0 in
13:29 40.8 °F 41 °F 29.7 in South 5.4 mph 7.8 mph 98% 0 in
13:30 40.8 °F 41 °F 29.7 in South 4.9 mph 7.8 mph 98% 0 in
13:31 40.8 °F 41 °F 29.7 in South 6 mph 7.8 mph 98% 0 in
13:32 40.8 °F 41 °F 29.7 in South 6 mph 7.8 mph 98% 0 in
13:33 41 °F 41 °F 29.7 in South 6 mph 7.8 mph 98% 0 in
13:39 41 °F 41 °F 29.7 in SSE 2.7 mph 6.7 mph 98% 0 in
13:40 41 °F 41 °F 29.7 in South 2.7 mph 6.7 mph 98% 0 in
13:43 41 °F 41 °F 29.7 in South 3.8 mph 6.3 mph 98% 0 in
13:46 41.2 °F 41 °F 29.7 in South 1.6 mph 6.3 mph 98% 0 in
13:47 41.2 °F 41 °F 29.7 in South 2.9 mph 5.6 mph 98% 0 in
13:48 41.2 °F 41 °F 29.7 in SSE 3.6 mph 5.6 mph 98% 0 in
13:51 41.2 °F 41 °F 29.7 in SSW 2.9 mph 5.4 mph 98% 0 in
13:53 41.4 °F 41 °F 29.7 in SSE 3.1 mph 5.4 mph 98% 0 in
13:54 41.4 °F 41 °F 29.7 in South 3.8 mph 5.4 mph 98% 0 in
13:55 41.4 °F 41 °F 29.7 in Calm   5.4 mph 98% 0 in
13:57 41.4 °F 41 °F 29.7 in South 3.8 mph 4.9 mph 98% 0 in
13:58 41.4 °F 41 °F 29.7 in Calm   4.9 mph 98% 0 in
14:00 41.5 °F 42.8 °F 29.7 in Calm   3.8 mph 98% 0 in
14:01 41.5 °F 42.8 °F 29.7 in South 1.6 mph 3.8 mph 98% 0 in
14:03 41.5 °F 42.8 °F 29.7 in South 4 mph 5.6 mph 98% 0 in
14:05 41.5 °F 42.8 °F 29.7 in SSE 5.4 mph 8.1 mph 98% 0 in
14:06 41.5 °F 42.8 °F 29.7 in South 4.9 mph 8.1 mph 98% 0 in
14:07 41.5 °F 42.8 °F 29.7 in SSW 3.8 mph 8.1 mph 98% 0 in
14:08 41.5 °F 42.8 °F 29.7 in Calm   8.1 mph 98% 0 in
14:09 41.5 °F 42.8 °F 29.7 in Calm   8.1 mph 98% 0 in
14:10 41.5 °F 42.8 °F 29.7 in SSW 3.4 mph 8.1 mph 98% 0 in
14:11 41.5 °F 42.8 °F 29.7 in South 2.9 mph 8.1 mph 98% 0 in
14:12 41.5 °F 42.8 °F 29.7 in SSW 4.9 mph 8.1 mph 98% 0 in
14:15 41.5 °F 42.8 °F 29.7 in South 2.7 mph 6.5 mph 98% 0 in
14:16 41.5 °F 42.8 °F 29.7 in South 2 mph 6.5 mph 98% 0 in
14:17 41.7 °F 42.8 °F 29.7 in South 2 mph 6.5 mph 98% 0 in
14:18 41.7 °F 42.8 °F 29.7 in SSW 2.9 mph 6.5 mph 98% 0 in
14:20 41.7 °F 42.8 °F 29.7 in SW 2.2 mph 6.5 mph 98% 0 in
14:22 41.7 °F 42.8 °F 29.7 in SSW 4 mph 6.5 mph 98% 0 in
14:24 41.9 °F 42.8 °F 29.7 in South 4 mph 5.8 mph 98% 0 in
14:25 41.9 °F 42.8 °F 29.7 in SSW 3.8 mph 6.3 mph 98% 0 in
14:26 41.9 °F 42.8 °F 29.7 in South 5.8 mph 6.3 mph 98% 0 in
14:27 42.1 °F 42.8 °F 29.7 in Calm   6.3 mph 98% 0 in
14:30 42.1 °F 42.8 °F 29.7 in South 6.3 mph 6.3 mph 98% 0 in
14:31 42.1 °F 42.8 °F 29.7 in South 4.9 mph 6.3 mph 98% 0 in
14:32 42.1 °F 42.8 °F 29.7 in SSW 4.3 mph 6.3 mph 98% 0 in
14:33 42.1 °F 42.8 °F 29.7 in SSW 4 mph 6.3 mph 98% 0 in
14:34 42.1 °F 42.8 °F 29.7 in SSW 3.8 mph 6.3 mph 98% 0 in
14:35 42.1 °F 42.8 °F 29.7 in South 5.8 mph 6.3 mph 98% 0 in
14:36 42.1 °F 42.8 °F 29.7 in South 5.8 mph 6.3 mph 98% 0 in
14:37 42.1 °F 42.8 °F 29.7 in South 6 mph 7.8 mph 98% 0 in
14:40 42.1 °F 42.8 °F 29.7 in South 5.4 mph 8.9 mph 98% 0 in
14:42 42.1 °F 42.8 °F 29.7 in SSW 6 mph 10.3 mph 98% 0 in
14:44 42.1 °F 42.8 °F 29.7 in SSE 3.8 mph 10.3 mph 98% 0 in
14:45 42.1 °F 42.8 °F 29.7 in South 4 mph 10.3 mph 98% 0 in
14:46 42.1 °F 42.8 °F 29.7 in South 3.4 mph 10.3 mph 98% 0 in
14:48 42.1 °F 42.8 °F 29.7 in SSE 4.3 mph 10.3 mph 98% 0 in
14:50 42.1 °F 42.8 °F 29.7 in SSE 3.6 mph 10.3 mph 98% 0 in
14:52 42.1 °F 42.8 °F 29.7 in SSE 3.1 mph 7.4 mph 98% 0 in
14:54 42.1 °F 42.8 °F 29.7 in SSE 1.1 mph 7.4 mph 98% 0 in
14:56 42.1 °F 42.8 °F 29.7 in SSW 2 mph 6.5 mph 98% 0 in
14:57 42.1 °F 42.8 °F 29.7 in SSE 5.6 mph 6.5 mph 98% 0 in
14:59 42.1 °F 42.8 °F 29.7 in Calm   6.5 mph 98% 0 in
15:01 42.1 °F 42.8 °F 29.7 in South 6 mph 6.5 mph 98% 0 in
15:03 42.1 °F 42.8 °F 29.7 in Calm   6.5 mph 98% 0 in
15:04 42.1 °F 42.8 °F 29.7 in South 4 mph 6.5 mph 98% 0 in
15:05 42.3 °F 42.8 °F 29.7 in South 8.1 mph 8.1 mph 98% 0 in
15:07 42.3 °F 42.8 °F 29.7 in South 4 mph 9.8 mph 98% 0 in
15:09 42.3 °F 42.8 °F 29.7 in SSW 5.8 mph 9.8 mph 98% 0 in
15:10 42.3 °F 42.8 °F 29.7 in SSE 2 mph 9.8 mph 98% 0 in
15:11 42.3 °F 42.8 °F 29.7 in SSW 5.8 mph 9.8 mph 98% 0 in
15:12 42.3 °F 42.8 °F 29.7 in SSW 3.4 mph 9.8 mph 98% 0 in
15:13 42.3 °F 42.8 °F 29.7 in South 3.8 mph 9.8 mph 98% 0 in
15:14 42.3 °F 42.8 °F 29.7 in South 2.5 mph 9.8 mph 98% 0 in
15:15 42.3 °F 42.8 °F 29.7 in South 7.2 mph 9.8 mph 98% 0 in
15:16 42.3 °F 42.8 °F 29.7 in South 7.2 mph 9.8 mph 98% 0 in
15:17 42.3 °F 42.8 °F 29.7 in SSW 4 mph 9.8 mph 98% 0 in
15:18 42.3 °F 42.8 °F 29.7 in SSW 5.6 mph 8.5 mph 98% 0 in
15:19 42.3 °F 42.8 °F 29.7 in SSW 6.5 mph 8.5 mph 98% 0 in
15:20 42.3 °F 42.8 °F 29.7 in South 3.6 mph 8.5 mph 98% 0 in
15:22 42.3 °F 42.8 °F 29.7 in South 8.9 mph 8.9 mph 98% 0 in
15:23 42.3 °F 42.8 °F 29.7 in SSW 6.5 mph 8.9 mph 98% 0 in
15:24 42.3 °F 42.8 °F 29.7 in SSW 3.4 mph 8.9 mph 98% 0 in
15:25 42.3 °F 42.8 °F 29.7 in SSW 6.3 mph 8.9 mph 98% 0 in
15:26 42.3 °F 42.8 °F 29.7 in SW 3.4 mph 8.9 mph 98% 0 in
15:27 42.3 °F 42.8 °F 29.7 in SSW 2.9 mph 8.9 mph 98% 0 in
15:30 42.4 °F 42.8 °F 29.7 in Calm   8.9 mph 98% 0 in
15:32 42.4 °F 42.8 °F 29.7 in WSW 5.6 mph 8.9 mph 98% 0 in
15:33 42.4 °F 42.8 °F 29.7 in SSW 5.4 mph 8.1 mph 98% 0 in
15:34 42.4 °F 42.8 °F 29.7 in SW 5.6 mph 8.1 mph 98% 0 in
15:36 42.4 °F 42.8 °F 29.7 in South 5.8 mph 8.1 mph 98% 0 in
15:38 42.4 °F 42.8 °F 29.7 in SSW 4 mph 10.7 mph 98% 0 in
15:39 42.4 °F 42.8 °F 29.7 in SW 6.3 mph 10.7 mph 98% 0 in
15:40 42.4 °F 42.8 °F 29.7 in SW 5.6 mph 10.7 mph 98% 0 in
15:43 42.4 °F 42.8 °F 29.7 in SSW 4.5 mph 10.7 mph 98% 0 in
15:44 42.4 °F 42.8 °F 29.7 in SW 3.8 mph 10.7 mph 98% 0 in
15:46 42.4 °F 42.8 °F 29.7 in SW 7.4 mph 10.7 mph 98% 0 in
15:47 42.4 °F 42.8 °F 29.7 in SSW 7.2 mph 10.3 mph 98% 0 in
15:48 42.4 °F 42.8 °F 29.7 in SSW 6.3 mph 10.3 mph 98% 0 in
15:49 42.4 °F 42.8 °F 29.7 in SSW 8.5 mph 10.3 mph 98% 0 in
15:50 42.4 °F 42.8 °F 29.7 in SW 5.8 mph 10.3 mph 98% 0 in
15:51 42.4 °F 42.8 °F 29.7 in SSW 6.3 mph 10.3 mph 98% 0 in
15:55 42.4 °F 42.8 °F 29.7 in SW 8.7 mph 10.3 mph 98% 0 in
15:57 42.4 °F 42.8 °F 29.7 in SW 5.4 mph 8.7 mph 98% 0 in
15:58 42.4 °F 42.8 °F 29.7 in SSW 6.9 mph 8.7 mph 98% 0 in
15:59 42.4 °F 42.8 °F 29.7 in WSW 6 mph 8.7 mph 98% 0 in
16:04 42.4 °F 42.8 °F 29.7 in SSW 6 mph 10.7 mph 98% 0 in
16:06 42.4 °F 42.8 °F 29.7 in SSW 7.2 mph 10.7 mph 98% 0 in
16:08 42.4 °F 42.8 °F 29.7 in SSW 5.6 mph 10.7 mph 98% 0 in
16:09 42.4 °F 42.8 °F 29.7 in SSW 10.3 mph 10.7 mph 98% 0 in
16:10 42.4 °F 42.8 °F 29.7 in SW 5.8 mph 10.7 mph 98% 0 in
16:11 42.4 °F 42.8 °F 29.7 in South 5.4 mph 10.3 mph 98% 0 in
16:12 42.4 °F 42.8 °F 29.7 in SW 5.8 mph 10.3 mph 98% 0 in
16:13 42.4 °F 42.8 °F 29.7 in South 5.8 mph 10.3 mph 98% 0 in
16:14 42.4 °F 42.8 °F 29.7 in SW 8.7 mph 10.3 mph 98% 0 in
16:15 42.4 °F 42.8 °F 29.7 in SSW 6.5 mph 10.3 mph 98% 0 in
16:16 42.4 °F 42.8 °F 29.7 in SW 6.5 mph 10.3 mph 98% 0 in
16:17 42.4 °F 42.8 °F 29.7 in SW 3.1 mph 10.3 mph 98% 0 in
16:20 42.4 °F 42.8 °F 29.7 in SW 5.4 mph 10.1 mph 98% 0 in
16:25 42.4 °F 42.8 °F 29.7 in SSW 5.4 mph 9.6 mph 98% 0 in
16:26 42.4 °F 42.8 °F 29.7 in WSW 4.9 mph 9.6 mph 98% 0 in
16:27 42.4 °F 42.8 °F 29.7 in SW 4.7 mph 9.6 mph 98% 0 in
16:28 42.4 °F 42.8 °F 29.7 in SW 6.5 mph 9.6 mph 98% 0 in
16:29 42.4 °F 42.8 °F 29.7 in SW 5.6 mph 9.6 mph 98% 0 in
16:30 42.4 °F 42.8 °F 29.7 in SSW 5.6 mph 8.1 mph 98% 0 in
16:32 42.3 °F 42.8 °F 29.7 in SSW 5.4 mph 7.8 mph 98% 0 in
16:33 42.3 °F 42.8 °F 29.7 in SSW 6.5 mph 7.8 mph 98% 0 in
16:34 42.3 °F 42.8 °F 29.7 in SW 7.2 mph 7.8 mph 98% 0 in
16:35 42.3 °F 42.8 °F 29.7 in SW 6.9 mph 7.8 mph 98% 0 in
16:36 42.3 °F 42.8 °F 29.7 in SW 6 mph 7.8 mph 98% 0 in
16:37 42.3 °F 42.8 °F 29.7 in SSW 6.3 mph 8.7 mph 98% 0 in
16:39 42.3 °F 42.8 °F 29.7 in SSW 4 mph 8.7 mph 98% 0 in
16:40 42.3 °F 42.8 °F 29.7 in SW 6 mph 8.7 mph 98% 0 in
16:41 42.3 °F 42.8 °F 29.7 in SSW 5.6 mph 8.7 mph 98% 0 in
16:42 42.3 °F 42.8 °F 29.7 in SW 4 mph 8.7 mph 98% 0 in
16:43 42.3 °F 42.8 °F 29.7 in WSW 4.3 mph 8.7 mph 98% 0 in
16:44 42.3 °F 42.8 °F 29.7 in Calm   8.7 mph 98% 0 in
16:45 42.3 °F 42.8 °F 29.7 in WSW 4.5 mph 8.7 mph 98% 0 in
16:46 42.3 °F 42.8 °F 29.7 in SSW 4.9 mph 8.7 mph 98% 0 in
16:48 42.3 °F 42.8 °F 29.7 in SW 5.4 mph 6.3 mph 98% 0 in
16:49 42.3 °F 42.8 °F 29.7 in South 4.9 mph 6.3 mph 98% 0 in
16:50 42.3 °F 42.8 °F 29.7 in SSW 3.8 mph 6.3 mph 98% 0 in
16:51 42.3 °F 42.8 °F 29.7 in SSW 3.6 mph 6 mph 98% 0 in
16:53 42.3 °F 42.8 °F 29.7 in SSW 3.6 mph 6 mph 98% 0 in
16:58 42.3 °F 42.8 °F 29.7 in SSW 5.6 mph 6 mph 98% 0 in
17:00 42.1 °F 42.8 °F 29.7 in Calm   6.5 mph 98% 0 in
17:01 42.1 °F 42.8 °F 29.7 in SW 5.8 mph 6.5 mph 98% 0 in
17:02 42.1 °F 42.8 °F 29.7 in SW 3.8 mph 6.5 mph 98% 0 in
17:03 42.1 °F 42.8 °F 29.7 in WSW 5.8 mph 6.5 mph 98% 0 in
17:04 42.1 °F 42.8 °F 29.7 in SSW 5.4 mph 6.5 mph 98% 0 in
17:06 42.1 °F 42.8 °F 29.7 in WSW 5.6 mph 7.8 mph 98% 0 in
17:09 42.1 °F 42.8 °F 29.7 in SSW 8.1 mph 8.7 mph 98% 0 in
17:10 42.1 °F 42.8 °F 29.7 in SSW 6 mph 8.7 mph 98% 0 in
17:13 42.1 °F 42.8 °F 29.7 in SW 4.5 mph 8.7 mph 98% 0 in
17:14 42.1 °F 42.8 °F 29.7 in SW 4.9 mph 8.7 mph 98% 0 in
17:17 42.1 °F 42.8 °F 29.7 in WSW 6.3 mph 8.7 mph 98% 0 in
17:18 42.1 °F 42.8 °F 29.7 in WSW 7.4 mph 8.1 mph 98% 0 in
17:19 42.1 °F 42.8 °F 29.7 in SSW 6 mph 8.1 mph 98% 0 in
17:21 42.1 °F 42.8 °F 29.7 in SW 6.5 mph 9.6 mph 98% 0 in
17:22 42.1 °F 42.8 °F 29.7 in SW 4.3 mph 9.6 mph 98% 0 in
17:23 42.1 °F 42.8 °F 29.7 in SW 3.8 mph 9.6 mph 98% 0 in
17:24 42.1 °F 42.8 °F 29.7 in SSW 4.7 mph 9.6 mph 98% 0 in
17:26 42.1 °F 42.8 °F 29.7 in SSW 5.4 mph 9.6 mph 98% 0 in
17:27 42.1 °F 42.8 °F 29.7 in SW 4.3 mph 9.6 mph 98% 0 in
17:28 42.1 °F 42.8 °F 29.7 in SSW 4 mph 9.6 mph 98% 0 in
17:30 42.1 °F 42.8 °F 29.7 in SSW 3.6 mph 8.7 mph 98% 0 in
17:31 42.1 °F 42.8 °F 29.7 in WSW 4.3 mph 8.5 mph 98% 0 in
17:32 42.1 °F 42.8 °F 29.7 in SW 6.3 mph 7.4 mph 98% 0 in
17:33 42.1 °F 42.8 °F 29.7 in SW 5.4 mph 7.2 mph 98% 0 in
17:34 42.1 °F 42.8 °F 29.7 in South 6 mph 7.2 mph 98% 0 in
17:35 41.9 °F 42.8 °F 29.7 in Calm   7.2 mph 98% 0 in
17:38 41.9 °F 42.8 °F 29.7 in Calm   6.3 mph 98% 0 in
17:39 41.9 °F 42.8 °F 29.7 in SW 5.6 mph 6.3 mph 98% 0 in
17:41 41.9 °F 42.8 °F 29.7 in SSW 4.9 mph 6.3 mph 98% 0 in
17:42 41.9 °F 42.8 °F 29.7 in SSW 5.8 mph 6.3 mph 98% 0 in
17:43 41.9 °F 42.8 °F 29.7 in Calm   6.3 mph 98% 0 in
17:44 41.9 °F 42.8 °F 29.7 in Calm   6.3 mph 98% 0 in
17:45 41.9 °F 42.8 °F 29.7 in Calm   6.3 mph 98% 0 in
17:46 41.9 °F 42.8 °F 29.7 in Calm   6.3 mph 98% 0 in
17:48 41.9 °F 42.8 °F 29.7 in Calm   6 mph 98% 0 in
17:51 41.9 °F 42.8 °F 29.7 in Calm   5.8 mph 98% 0 in
17:52 41.7 °F 42.8 °F 29.7 in SW 4.3 mph 5.6 mph 98% 0 in
17:53 41.7 °F 42.8 °F 29.7 in SSW 4.9 mph 5.6 mph 98% 0 in
17:54 41.7 °F 42.8 °F 29.7 in SW 3.6 mph 4.9 mph 98% 0 in
17:58 41.7 °F 42.8 °F 29.7 in SW 3.6 mph 5.8 mph 98% 0 in
17:59 41.7 °F 42.8 °F 29.7 in SW 3.4 mph 5.8 mph 98% 0 in
18:00 41.7 °F 42.8 °F 29.7 in SSW 4 mph 5.8 mph 98% 0 in
18:01 41.7 °F 42.8 °F 29.7 in SSW 3.4 mph 5.8 mph 98% 0 in
18:03 41.7 °F 42.8 °F 29.7 in Calm   5.8 mph 98% 0 in
18:04 41.7 °F 42.8 °F 29.7 in SW 3.4 mph 5.8 mph 98% 0 in
18:06 41.7 °F 42.8 °F 29.7 in SSW 2.5 mph 5.8 mph 98% 0 in
18:07 41.7 °F 42.8 °F 29.7 in Calm   4.9 mph 98% 0 in
18:08 41.7 °F 42.8 °F 29.7 in Calm   4.9 mph 98% 0 in
18:09 41.7 °F 42.8 °F 29.7 in SSW 2.7 mph 4.9 mph 98% 0 in
18:10 41.7 °F 42.8 °F 29.7 in Calm   4.9 mph 98% 0 in
18:11 41.7 °F 42.8 °F 29.7 in Calm   4.9 mph 98% 0 in
18:12 41.7 °F 42.8 °F 29.7 in SSW 1.3 mph 4.9 mph 98% 0 in
18:13 41.7 °F 42.8 °F 29.7 in South 5.4 mph 5.4 mph 98% 0 in
18:14 41.7 °F 42.8 °F 29.7 in South 4 mph 6.5 mph 98% 0 in
18:16 41.9 °F 42.8 °F 29.7 in SSW 3.1 mph 6.5 mph 98% 0 in
18:17 41.9 °F 42.8 °F 29.7 in SSW 2.7 mph 6.5 mph 98% 0 in
18:18 41.9 °F 42.8 °F 29.7 in SSW 2.7 mph 6.5 mph 98% 0 in
18:22 41.9 °F 42.8 °F 29.7 in SSW 3.4 mph 6.5 mph 98% 0 in
18:24 41.9 °F 42.8 °F 29.7 in SSW 3.8 mph 6.5 mph 98% 0 in
18:26 41.9 °F 42.8 °F 29.7 in South 2.9 mph 6.5 mph 98% 0 in
18:27 41.9 °F 42.8 °F 29.7 in SSW 3.8 mph 6.5 mph 98% 0 in
18:28 41.9 °F 42.8 °F 29.7 in Calm   6.5 mph 98% 0 in
18:33 42.1 °F 42.8 °F 29.7 in Calm   6.3 mph 98% 0 in
18:39 42.1 °F 42.8 °F 29.7 in Calm   6.3 mph 98% 0 in
18:46 42.1 °F 42.8 °F 29.7 in SSW 6 mph 6.3 mph 98% 0 in
18:50 42.1 °F 42.8 °F 29.7 in SSW 2.5 mph 6.3 mph 98% 0 in
18:55 42.1 °F 42.8 °F 29.7 in SSW 3.8 mph 6.5 mph 98% 0 in
18:57 42.1 °F 42.8 °F 29.7 in SW 3.6 mph 6.5 mph 98% 0 in
18:58 42.1 °F 42.8 °F 29.7 in SSW 4.3 mph 6.5 mph 98% 0 in
18:59 42.1 °F 42.8 °F 29.7 in SSW 3.6 mph 6.5 mph 98% 0 in
19:00 42.1 °F 42.8 °F 29.7 in SSW 2.9 mph 6.5 mph 98% 0 in
19:05 42.1 °F 42.8 °F 29.7 in Calm   6.3 mph 98% 0 in
19:06 42.1 °F 42.8 °F 29.7 in WSW 3.4 mph 5.6 mph 98% 0 in
19:13 42.1 °F 42.8 °F 29.7 in SSW 2.5 mph 6.5 mph 98% 0 in
19:20 42.3 °F 42.8 °F 29.7 in South 3.1 mph 6.3 mph 98% 0 in
19:22 42.3 °F 42.8 °F 29.7 in SW 4 mph 6.3 mph 98% 0 in
19:24 42.3 °F 42.8 °F 29.7 in Calm   6.3 mph 98% 0 in
19:25 42.3 °F 42.8 °F 29.7 in Calm   6.3 mph 98% 0 in
19:27 42.3 °F 42.8 °F 29.7 in Calm   6.3 mph 98% 0 in
19:28 42.3 °F 42.8 °F 29.7 in Calm   6.3 mph 98% 0 in
19:34 42.3 °F 42.8 °F 29.7 in Calm   4.9 mph 98% 0 in
19:35 42.3 °F 42.8 °F 29.7 in Calm   4.9 mph 98% 0 in
19:37 42.3 °F 42.8 °F 29.7 in Calm   5.8 mph 98% 0 in
19:38 42.3 °F 42.8 °F 29.7 in Calm   5.8 mph 98% 0 in
19:41 42.3 °F 42.8 °F 29.7 in SSW 3.8 mph 5.8 mph 98% 0 in
19:46 42.3 °F 42.8 °F 29.7 in Calm   4.3 mph 98% 0 in
19:51 42.3 °F 42.8 °F 29.7 in Calm   4.3 mph 98% 0 in
19:52 42.3 °F 42.8 °F 29.7 in Calm   4.3 mph 98% 0 in
19:56 42.3 °F 42.8 °F 29.7 in Calm   3.8 mph 98% 0 in
20:02 42.3 °F 42.8 °F 29.7 in Calm   4 mph 98% 0 in
20:04 42.3 °F 42.8 °F 29.7 in Calm   4 mph 98% 0 in
20:09 42.3 °F 42.8 °F 29.7 in South 0.9 mph 3.4 mph 98% 0 in
20:14 42.3 °F 42.8 °F 29.7 in Calm   2.5 mph 98% 0 in
20:18 42.3 °F 42.8 °F 29.7 in South 0.9 mph 2.2 mph 98% 0 in
20:24 42.3 °F 42.8 °F 29.7 in Calm   2 mph 98% 0 in
20:29 42.3 °F 42.8 °F 29.7 in Calm   2 mph 98% 0 in
20:34 42.3 °F 42.8 °F 29.7 in SSE 1.6 mph 2.7 mph 98% 0 in
20:39 42.3 °F 42.8 °F 29.7 in Calm   2.7 mph 98% 0 in
20:44 42.4 °F 42.8 °F 29.7 in Calm     98% 0 in
20:56 42.4 °F 42.8 °F 29.7 in Calm   0.9 mph 98% 0 in
21:01 42.4 °F 42.8 °F 29.7 in Calm   3.1 mph 98% 0 in
21:06 42.4 °F 42.8 °F 29.7 in Calm   3.1 mph 98% 0 in
21:12 42.6 °F 42.8 °F 29.7 in Calm   2.5 mph 98% 0 in
21:18 42.6 °F 42.8 °F 29.7 in Calm   0.9 mph 98% 0 in
21:23 42.6 °F 42.8 °F 29.7 in Calm   1.3 mph 98% 0 in
21:29 42.8 °F 42.8 °F 29.7 in Calm     98% 0 in
21:33 42.8 °F 42.8 °F 29.7 in Calm     98% 0 in
21:35 42.8 °F 42.8 °F 29.7 in Calm     98% 0 in
21:37 42.8 °F 42.8 °F 29.7 in Calm     98% 0 in
21:42 42.8 °F 42.8 °F 29.7 in Calm     98% 0 in
21:43 42.8 °F 42.8 °F 29.7 in Calm     98% 0 in
21:44 42.8 °F 42.8 °F 29.7 in Calm   2.2 mph 98% 0 in
21:46 43 °F 42.8 °F 29.7 in Calm   2.2 mph 98% 0 in
21:50 43 °F 42.8 °F 29.7 in Calm   4.7 mph 98% 0 in
21:52 43 °F 42.8 °F 29.7 in Calm   4.7 mph 98% 0 in
21:53 43 °F 42.8 °F 29.7 in SSE 2 mph 4.7 mph 98% 0 in
21:59 43.2 °F 42.8 °F 29.7 in Calm   4.7 mph 98% 0 in
22:01 43.3 °F 42.8 °F 29.7 in Calm   2 mph 98% 0 in
22:02 43.3 °F 42.8 °F 29.7 in Calm   2 mph 98% 0 in
22:08 43.3 °F 42.8 °F 29.7 in Calm   2 mph 98% 0 in
22:13 43.3 °F 42.8 °F 29.7 in South 2.5 mph 2.5 mph 98% 0 in
22:20 43.5 °F 42.8 °F 29.7 in South 2 mph 3.4 mph 98% 0 in
22:27 43.7 °F 44.6 °F 29.7 in Calm   3.6 mph 98% 0 in
22:32 43.9 °F 44.6 °F 29.7 in SSW 2 mph 2.9 mph 98% 0 in
22:36 44.1 °F 44.6 °F 29.7 in Calm   3.4 mph 98% 0 in
22:44 44.2 °F 44.6 °F 29.7 in SSE 2 mph 3.8 mph 98% 0 in
22:47 44.2 °F 44.6 °F 29.7 in Calm   3.8 mph 98% 0 in
22:55 44.4 °F 44.6 °F 29.7 in Calm   2.7 mph 98% 0 in
22:57 44.4 °F 44.6 °F 29.7 in Calm   2.2 mph 98% 0 in
23:03 44.6 °F 44.6 °F 29.7 in South 2.5 mph 3.8 mph 98% 0 in
23:09 44.8 °F 44.6 °F 29.7 in Calm   4.9 mph 98% 0 in
23:14 44.8 °F 44.6 °F 29.7 in South 1.3 mph 5.4 mph 98% 0 in
23:17 44.8 °F 44.6 °F 29.7 in Calm   5.4 mph 98% 0 in
23:23 45 °F 44.6 °F 29.7 in South 3.6 mph 6 mph 98% 0 in
23:28 45 °F 44.6 °F 29.7 in South 2 mph 6 mph 98% 0 in
23:29 45 °F 44.6 °F 29.7 in Calm   6 mph 98% 0 in
23:30 45 °F 44.6 °F 29.7 in Calm   6 mph 98% 0 in
23:35 45.1 °F 44.6 °F 29.7 in Calm   5.6 mph 98% 0 in
23:38 45.1 °F 44.6 °F 29.7 in South 1.3 mph 4.9 mph 98% 0 in
23:44 45.1 °F 44.6 °F 29.7 in SSE 3.6 mph 7.2 mph 98% 0 in
23:49 45.1 °F 44.6 °F 29.7 in SSE 3.4 mph 6.3 mph 98% 0 in
23:51 45.1 °F 44.6 °F 29.7 in Calm   6.3 mph 98% 0 in
23:53 45.3 °F 44.6 °F 29.7 in SSW 4 mph 6.3 mph 98% 0 in
23:56 45.3 °F 44.6 °F 29.7 in Calm   6 mph 98% 0 in
Données Historique de Météo Turbie

Mise a jour : 26/05/2018 15:54:13
Généré par Cumulus 1.9.4 (1099)